Погода в Таразе

Поиск расширенной информации на нашем сайте:

Полезная информация:

Новости сайта



02.01.2020
Опубликован Долгосрочный прогноз погоды по городам России и ближнего зарубежья на январь 2020 года.
Карты: Прогноз на январь и февраль 2020 года, Сравнение прогнозируемой аномалии приземной температуры воздуха на январь 2020 года по разным моделям.




Погода в Таразе - сегодня

Время (UTC), дата Ветер
(°,м/с) 
Видим.   Явления Облачность Т
(°С)
Тd
(°С)
f(%) Тe
(°С)
Pmin
(гПа)
dP
(гПа)
Po
(мм)
O2
(г/м3)
Тmin Tmax R s Состояние
почвы
15 02.07.20 300 (СЗ) 19-20{23}  20000 м    ясно 
+23 -0.2 21 +23  1008  3.4  702  261    +31.3       
18 02.07.20 320 (СЗ) 9{20}  10 км    ясно 
+17.8 +4.3 41 +17  1013.6  705  266    +31.3       
21 02.07.20 210 (ЮЗ) 10 км    ясно 
+15 +5.6 53 +15  1014.7  0.4  705  268           
00 03.07.20 210 (ЮЗ) 20000 м    ясно 
+15.7 +4.6 48 +16  1015  0.4  705  268           
03 03.07.20 170 (Ю) 20000 м    ясно 
+20.5 +5.3 37 +21  1014.2  0.4  706  264           
06 03.07.20 310 (СЗ) 20000 м    ясно 
+23.3 +6.7 34 +23  1013.4  706  261  +14.6         
09 03.07.20 320 (СЗ) 20000 м    3/3 1000 м 
[Cu med, cong]
+27 +7.1 28 +27  1011.7  -0.7  705  257           
12 03.07.20 350 (С) 20000 м    3/3 1000 м 
[Cu med, cong]
+27.3 +6.7 27 +27  1010.8  -0.8  705  257           
15 03.07.20 310 (СЗ) 20000 м    3/0 средняя 
[Ac lent]
+24 +7.7 35 +24  1011.7  0.1  705  260    +28       
18 03.07.20 330 (СЗ) 10 км    ясно 
+20.7 +4.5 34 +21  1013.1  0.5  705  263    +28       
21 03.07.20 310 (СЗ) 10 км    8/8 1000 м 
[Sc diur, vesp]
+17.3 -1.2 28 +18  1013.6  -0.5  705  267           
00 04.07.20 210 (ЮЗ) 20000 м    3/3 1000 м 
[Sc diur, vesp]
+13.3 +1.1 43 +15  1014  -0.5  704  270           
03 04.07.20 230 (ЮЗ) 20000 м    1/1 1000 м 
[Sc diur, vesp]
+22.4 +4 30 +22  1011.2  -0.4  704  261           
06 04.07.20 230 (ЮЗ) 20000 м    ясно 
+25.4 +4 25 +25  1009.9  -0.5  704  259  +13.1         
09 04.07.20 300 (СЗ) 20000 м    ясно 
+27 +4.3 23 +27  1008.6  -0.9  703  257           
12 04.07.20 350 (С) 20000 м    ясно 
+27.6 +3.4 21 +28  1007.7  -0.7  702  256           
15 04.07.20 310 (СЗ) 20000 м    ясно 
+23.1 -0.4 21 +23  1008.9  0.1  702  261    +29.4       
18 04.07.20 тихо ()   10 км    ясно 
+18.2 +2.5 35 +18  1010.5  0.3  703  265    +29.4       
21 04.07.20 190 (Ю) 10 км    ясно 
+15.1 +3.4 45 +16  1009.2  -1.9  701  267           
00 05.07.20 160 (Ю) 20000 м    ясно 
+14.5 +4.1 50 +15  1008.5  -0.8  701  267           
03 05.07.20 180 (Ю) 20000 м    3/3 1000 м верхняя 
[Sc diur, vesp|Ci sp]
+22.1 +3.4 29 +22  1006.3  -0.2  701  261           
06 05.07.20 320 (СЗ) 20000 м    6/4 1000 м верхняя 
[Sc diur, vesp|Ci sp]
+25.2 +3.8 25 +25  1005.5  -0.1  700  258  +13.9         
09 05.07.20 280 (З) 20000 м    6/4 1000 м верхняя 
[Sc diur, vesp|Ci sp]
+27.9 +3.8 21 +28  1002.8  -1.8  699  255           
12 05.07.20 020 (С) 20000 м    8/4 600 м кучево-дожд., средняя 
[Cb cap|Ac lent]
+24.7 +8 34 +25  1004  0.4  699  257           
15 05.07.20 310 (СЗ) 10 км  гроза, ливневой дождь  10/10 600 м кучево-дожд. 
[Cb cap]
+18.8 +13.1 69 +26  1007.9  2.4  701  262    +28.6     
Время (UTC), дата Ветер
(°,м/с) 
Видим.   Явления Облачность Т
(°С)
Тd
(°С)
f(%) Тe
(°С)
Pmin
(гПа)
dP
(гПа)
Po
(мм)
O2
(г/м3)
Тmin Tmax R s Состояние
почвы

Для получения пояснительной информации подведите курсор к названию столбца.

ПОГОДА в Таразе - архив

Всё, что Вы хотите узнать о погоде в Таразе - удобно и подробно!

Выберите нужную дату (начиная с 1 января 2019* года) и нажмите кнопку "Найти".
Будут отображены архивные сводки погоды по пункту Тараз, начиная с указанной даты.


Отображать данные в формате CSV (для использования в таблицах Excel)


Внимание! Наш архив погоды предназначен исключительно для личного некоммерческого использования в познавательных целях. Если Вам необходимы официальные справки о состоянии погоды (для производственных, юридических, коммерческих и т.п. целей), обращайтесь в органы Росгидромета.

*Примечание: данная дата относится к архиву по метеостанциям СССР (Россия, СНГ, Балтия).
Архив по метеостанциям Зарубежной Европы и Азии (кроме Китая) хранится 10 дней, по другим регионам земного шара (Китай, Африка, Америка, Австралия, Океания) - 1 день.

Тараз - район местоположения метеостанции


Название, широта, долгота, высота метеостанции:
Тараз (город) 42.9°ш. 71.4°д. 651 м над ур. моря [Казахстан]

Дополнительная информация

В oтличие oт бoльшинства пoгoдных сайтoв мы публикуем пoдрoбную метеoинфoрмацию в детальнoм прoфессиoнальнoм фoрмате.

Характеристики температуры и влажнoсти вoздуха измеряются на высoте 2 м в тени вдали oт зданий и деревьев.
Скoрoсть ветра измеряется на высoте 10 м (на урoвне рoста челoвека скoрoсть ветра ниже в 1.5-2 раза). Если метеoстанция нахoдится в гoрoде или в лесу, тo скoрoсть ветра занижена на 2-4 м/с пo сравнению с oткрытым местoм. Скoрoсть ветра над акватoриями крупных рек и oзёр, а также на вершинах хoлмoв на 2-5 м/с выше, чем в oбычных услoвиях.
Атмoсфернoе давление в разных тoчках местнoсти мoжет значительнo oтличаться oт давления на метеoстанции, в зависимoсти oт услoвий рельефа (при пoдъёме на 10 м давление пoнижается примернo на 1 мм рт.ст.).